Weather reports worldwide

Advertisment
Cabo Busto, Spain (8010): temperature & dewpoint: 14.10.2020 16:00:00 - 20.10.2020 16:00:00 (CEST)Cabo Busto, Spain (8010): wind speed & gusts: 14.10.2020 16:00:00 - 20.10.2020 16:00:00 (CEST)Cabo Busto, Spain (8010): wind direction: 14.10.2020 16:00:00 - 20.10.2020 16:00:00 (CEST)Cabo Busto, Spain (8010): reduced air pressure: 14.10.2020 16:00:00 - 20.10.2020 16:00:00 (CEST)Cabo Busto, Spain (8010): visibility: 14.10.2020 16:00:00 - 20.10.2020 16:00:00 (CEST)Cabo Busto, Spain (8010): sunshine duration: 14.10.2020 16:00:00 - 20.10.2020 16:00:00 (CEST)Cabo Busto, Spain (8010): precipitation: 14.10.2020 16:00:00 - 20.10.2020 16:00:00 (CEST)
Date & Time tt [°C] td [°C] ff [km/h] ff [kn] fx [km/h] fx [kn] dd ppp [hPa] vv [km] sd [min] rr [mm]
20.10.2020 16:00:00 - - - - - - - - - - -
20.10.2020 15:00:00 17,7 12,8 8 4 11 6 ESE 999,6 20 0 0,0
20.10.2020 14:00:00 - - - - - - - - - - -
20.10.2020 13:00:00 17,5 12,2 3 2 9 5 E 1001,4 20 0 0,0
20.10.2020 12:00:00 - - - - - - - - - - -
20.10.2020 11:00:00 16,4 11,1 7 4 16 9 SE 1002,0 20 0 0,0
20.10.2020 10:00:00 - - - - - - - - - - -
20.10.2020 09:00:00 15,3 10,5 13 7 20 11 SE 1002,0 20 0 0,0
20.10.2020 08:00:00 - - - - - - - - - - -
20.10.2020 07:00:00 15,6 10,5 13 7 18 10 SE 1002,6 20 0 0,0
20.10.2020 06:00:00 - - - - - - - - - - -
20.10.2020 05:00:00 16,3 10,6 8 4 11 6 SE 1003,2 20 0 0,0
20.10.2020 04:00:00 - - - - - - - - - - -
20.10.2020 03:00:00 18,7 10,3 4 2 12 7 NE 1003,5 20 0 0,0
20.10.2020 02:00:00 - - - - - - - - - - -
20.10.2020 01:00:00 19,3 10,5 4 2 16 9 ESE 1004,3 20 0 0,0
20.10.2020 00:00:00 - - - - - - - - - - -
19.10.2020 23:00:00 20,0 9,6 8 5 28 15 SE 1004,3 20 0 0,0
19.10.2020 22:00:00 - - - - - - - - - - -
19.10.2020 21:00:00 20,6 10,0 25 13 45 25 S 1004,4 20 0 0,0
19.10.2020 20:00:00 - - - - - - - - - - -
19.10.2020 19:00:00 21,4 8,7 11 6 35 19 SSW 1003,3 20 0 0,2
19.10.2020 18:00:00 - - - - - - - - - - -
19.10.2020 17:00:00 25,2 3,8 17 9 45 24 SSW 1003,0 20 19 0,0
19.10.2020 16:00:00 - - - - - - - - - - -
19.10.2020 15:00:00 23,8 10,2 12 6 35 19 WSW 1004,1 20 54 0,0
19.10.2020 14:00:00 - - - - - - - - - - -
19.10.2020 13:00:00 21,9 8,0 12 6 17 9 ESE 1005,6 20 60 0,0
19.10.2020 12:00:00 - - - - - - - - - - -
19.10.2020 11:00:00 16,8 6,8 22 12 35 19 SSE 1006,9 20 15 0,0
19.10.2020 10:00:00 - - - - - - - - - - -
19.10.2020 09:00:00 14,5 7,6 24 13 32 17 SSE 1008,0 20 0 0,0
19.10.2020 08:00:00 - - - - - - - - - - -
19.10.2020 07:00:00 14,4 8,1 22 12 29 16 SSE 1009,6 20 0 0,0
19.10.2020 06:00:00 - - - - - - - - - - -
19.10.2020 05:00:00 16,2 8,1 20 11 27 15 SSE 1011,0 20 0 0,0
19.10.2020 04:00:00 - - - - - - - - - - -
19.10.2020 03:00:00 16,3 9,3 22 12 31 17 SSE 1012,7 20 0 0,0
19.10.2020 02:00:00 - - - - - - - - - - -
19.10.2020 01:00:00 17,3 10,2 19 11 23 13 SSE 1014,2 20 0 0,0
19.10.2020 00:00:00 - - - - - - - - - - -
18.10.2020 23:00:00 16,8 11,9 11 6 16 9 ESE 1015,1 20 0 0,0
18.10.2020 22:00:00 - - - - - - - - - - -
18.10.2020 21:00:00 16,9 13,3 10 5 16 8 ESE 1016,1 20 0 0,0
18.10.2020 20:00:00 - - - - - - - - - - -
18.10.2020 19:00:00 18,3 13,4 5 3 10 5 E 1016,3 20 58 0,0
18.10.2020 18:00:00 - - - - - - - - - - -
18.10.2020 17:00:00 18,4 13,5 10 5 17 9 E 1016,7 20 30 0,0
18.10.2020 16:00:00 - - - - - - - - - - -
18.10.2020 15:00:00 18,3 12,3 5 3 9 5 ENE 1017,8 20 60 0,0
18.10.2020 14:00:00 - - - - - - - - - - -
18.10.2020 13:00:00 17,9 11,9 12 7 19 10 W 1018,5 20 60 0,0
18.10.2020 12:00:00 - - - - - - - - - - -
18.10.2020 11:00:00 15,3 9,2 19 10 32 17 SSE 1018,3 20 60 0,0
18.10.2020 10:00:00 - - - - - - - - - - -
18.10.2020 09:00:00 12,1 8,3 16 9 24 13 SSE 1018,1 20 0 0,0
18.10.2020 08:00:00 - - - - - - - - - - -
18.10.2020 07:00:00 12,1 8,0 22 12 32 17 SSE 1017,6 20 0 0,0
18.10.2020 06:00:00 - - - - - - - - - - -
18.10.2020 05:00:00 11,9 8,1 16 8 23 12 SSE 1017,7 20 0 0,0
18.10.2020 04:00:00 - - - - - - - - - - -
18.10.2020 03:00:00 12,4 8,7 20 11 29 16 SSE 1017,5 20 0 0,0
18.10.2020 02:00:00 - - - - - - - - - - -
18.10.2020 01:00:00 13,1 9,2 19 10 27 14 SSE 1017,6 20 0 0,0
18.10.2020 00:00:00 - - - - - - - - - - -
17.10.2020 23:00:00 13,5 9,9 18 10 22 12 SSE 1017,3 20 0 0,0
17.10.2020 22:00:00 - - - - - - - - - - -
17.10.2020 21:00:00 14,1 9,7 10 6 21 11 SE 1017,2 20 0 0,0
17.10.2020 20:00:00 - - - - - - - - - - -
17.10.2020 19:00:00 16,4 10,5 14 8 22 12 E 1015,9 20 60 0,0
17.10.2020 18:00:00 - - - - - - - - - - -
17.10.2020 17:00:00 16,6 10,0 13 7 19 10 E 1015,7 20 59 0,0
17.10.2020 16:00:00 - - - - - - - - - - -
17.10.2020 15:00:00 16,4 10,3 7 4 15 8 E 1016,1 20 22 0,0
17.10.2020 14:00:00 - - - - - - - - - - -
17.10.2020 13:00:00 16,1 8,8 10 6 20 11 ESE 1015,5 20 28 0,0
17.10.2020 12:00:00 - - - - - - - - - - -
17.10.2020 11:00:00 12,7 7,1 18 10 26 14 SSE 1015,0 20 38 0,0
17.10.2020 10:00:00 - - - - - - - - - - -
17.10.2020 09:00:00 - - - - - - - - - - -
17.10.2020 08:00:00 - - - - - - - - - - -
17.10.2020 07:00:00 - - - - - - - - - - -
17.10.2020 06:00:00 - - - - - - - - - - -
17.10.2020 05:00:00 10,8 6,7 22 12 27 14 SSE 1013,8 20 0 0,0
17.10.2020 04:00:00 - - - - - - - - - - -
17.10.2020 03:00:00 11,4 7,6 16 9 22 12 SSE 1015,1 20 0 0,0
17.10.2020 02:00:00 - - - - - - - - - - -
17.10.2020 01:00:00 11,8 7,7 21 11 29 16 SSE 1015,6 20 0 0,0
17.10.2020 00:00:00 - - - - - - - - - - -
16.10.2020 23:00:00 12,2 7,8 18 10 26 14 SSE 1016,5 20 0 0,0
16.10.2020 22:00:00 - - - - - - - - - - -
16.10.2020 21:00:00 13,7 8,9 10 5 28 15 E 1017,1 20 0 0,0
16.10.2020 20:00:00 - - - - - - - - - - -
16.10.2020 19:00:00 15,2 9,3 19 11 34 18 ENE 1017,0 20 60 0,0
16.10.2020 18:00:00 - - - - - - - - - - -
16.10.2020 17:00:00 15,7 9,2 22 12 35 19 ENE 1017,4 20 60 0,0
16.10.2020 16:00:00 - - - - - - - - - - -
16.10.2020 15:00:00 16,0 8,9 14 8 31 17 NE 1018,4 20 60 0,0
16.10.2020 14:00:00 - - - - - - - - - - -
16.10.2020 13:00:00 15,2 7,3 8 4 15 8 E 1019,9 20 60 0,0
16.10.2020 12:00:00 - - - - - - - - - - -
16.10.2020 11:00:00 11,2 5,8 16 9 - - SSE 1020,6 20 60 0,0
16.10.2020 10:00:00 - - - - - - - - - - -
16.10.2020 09:00:00 7,3 3,9 - - - - - 1020,3 20 0 0,0
16.10.2020 08:00:00 - - - - - - - - - - -
16.10.2020 07:00:00 7,7 4,3 - - - - - 1020,7 20 0 0,0
16.10.2020 06:00:00 - - - - - - - - - - -
16.10.2020 05:00:00 8,1 4,5 - - - - - 1021,4 20 0 0,0
16.10.2020 04:00:00 - - - - - - - - - - -
16.10.2020 03:00:00 8,6 5,1 22 12 27 15 SSE 1022,3 20 0 0,0
16.10.2020 02:00:00 - - - - - - - - - - -
16.10.2020 01:00:00 9,3 6,1 19 11 26 14 SSE 1022,6 20 0 0,0
16.10.2020 00:00:00 - - - - - - - - - - -
15.10.2020 23:00:00 10,5 6,4 15 8 22 12 SSE 1022,5 20 0 0,0
15.10.2020 22:00:00 - - - - - - - - - - -
15.10.2020 21:00:00 12,4 6,2 11 6 18 10 SSE 1022,2 20 0 0,0
15.10.2020 20:00:00 - - - - - - - - - - -
15.10.2020 19:00:00 15,0 7,3 12 7 29 16 NE 1021,5 20 42 0,0
15.10.2020 18:00:00 - - - - - - - - - - -
15.10.2020 17:00:00 16,6 9,0 8 4 - - N 1021,2 17 60 0,0
15.10.2020 16:00:00 - - - - - - - - - - -
15.10.2020 15:00:00 16,3 9,4 10 6 - - NE 1021,4 19 57 0,0
15.10.2020 14:00:00 - - - - - - - - - - -
15.10.2020 13:00:00 15,4 10,5 - - - - - 1021,7 20 32 0,0
15.10.2020 12:00:00 - - - - - - - - - - -
15.10.2020 11:00:00 - - - - - - - - - - -
15.10.2020 10:00:00 - - - - - - - - - - -
15.10.2020 09:00:00 13,1 10,3 17 9 29 16 WNW 1019,7 20 0 2,8
15.10.2020 08:00:00 - - - - - - - - - - -
15.10.2020 07:00:00 - - - - - - - - - - -
15.10.2020 06:00:00 - - - - - - - - - - -
15.10.2020 05:00:00 12,9 9,3 12 7 22 12 WSW 1019,1 20 0 0,0
15.10.2020 04:00:00 - - - - - - - - - - -
15.10.2020 03:00:00 12,9 9,9 13 7 24 13 SW 1019,6 20 0 0,0
15.10.2020 02:00:00 - - - - - - - - - - -
15.10.2020 01:00:00 - - - - - - - - - - -
15.10.2020 00:00:00 - - - - - - - - - - -
14.10.2020 23:00:00 13,0 9,7 12 6 24 13 SSW 1019,1 14 0 0,4
14.10.2020 22:00:00 - - - - - - - - - - -
14.10.2020 21:00:00 13,3 9,9 22 12 34 18 W 1018,8 20 0 0,0
14.10.2020 20:00:00 - - - - - - - - - - -
14.10.2020 19:00:00 13,5 10,9 - - - - - 1018,2 8 9 0,4
14.10.2020 18:00:00 - - - - - - - - - - -
14.10.2020 17:00:00 - - - - - - - - - - -
14.10.2020 16:00:00 - - - - - - - - - - -

tt = temperature
td = dewpoint
ff = wind speed
fx = gusts
dd = wind direction
ppp = reduced air pressure
vv = visibility
sd = sunshine duration
rr = precipitation

Next stations